Weather History for LKMT - October, 2012

Change the Weather History Date:

Thursday, October 11, 2012

  Actual Average (EPKT) Record (EPKT)
Temperature  
Mean Temperature 46 °F -  
Max Temperature 54 °F 52 °F 74 °F (2014)
Min Temperature 35 °F 38 °F 28 °F (2004)
Degree Days  
Heating Degree Days 20    
Moisture  
Dew Point 37 °F    
Average Humidity 80    
Maximum Humidity 100    
Minimum Humidity 43    
Precipitation  
Precipitation 0.00 in 0.06 in - ()
Sea Level Pressure  
Sea Level Pressure 29.98 in    
Wind  
Wind Speed 4 mph ()    
Max Wind Speed 10 mph    
Max Gust Speed -    
Visibility 6.4 miles    
Events      
Averages and records for this station are not official NWS values.
T = Trace of Precipitation, MM = Missing Value Source: Averaged Metar Reports

Daily Weather History Graph

Daily Weather History Graph

Search for Another Location

Airport or City:

Trip Planner

Search our weather history database for the weather conditions in past years. The results will help you decide how hot, cold, wet, or windy it might be!

Date:

Astronomy

Oct. 11, 2012 Rise Set
Actual Time 7:03 AM CEST 6:04 PM CEST
Civil Twilight 6:30 AM CEST 6:36 PM CEST
Nautical Twilight 5:53 AM CEST 7:13 PM CEST
Astronomical Twilight 5:16 AM CEST 7:50 PM CEST
Moon 1:58 AM CEST (10/11) 3:51 PM CEST (10/11)
Length of Visible Light 12h 05m
Length of Day
11h 01m
Waning Crescent, 20% of the Moon is Illuminated
Oct 11
Waning Crescent
Oct 15
New
Oct 22
First Quarter
Oct 29
Full
Nov 7
Last Quarter

Hourly Weather History & Observations

Time (CEST) Temp. Windchill Dew Point Humidity Pressure Visibility Wind Dir Wind Speed Gust Speed Precip Events Conditions
12:00 AM 39.2 °F 35.9 °F 35.6 °F 87% 29.95 in - South 4.6 mph - N/A   Clear
12:30 AM 39.2 °F 35.9 °F 35.6 °F 87% 29.95 in 6.2 mi South 4.6 mph - N/A   Mostly Cloudy
1:00 AM 37.4 °F - 35.6 °F 93% 29.95 in 6.2 mi SSW 2.3 mph - N/A   Mostly Cloudy
1:30 AM 39.2 °F 35.9 °F 37.4 °F 93% 29.95 in 6.2 mi WSW 4.6 mph - N/A   Mostly Cloudy
2:00 AM 39.2 °F 35.0 °F 37.4 °F 93% 29.98 in 6.2 mi SW 5.8 mph - N/A   Mostly Cloudy
2:30 AM 39.2 °F 37.0 °F 37.4 °F 93% 29.98 in 6.2 mi SW 3.5 mph - N/A   Partly Cloudy
3:00 AM 39.2 °F 35.9 °F 37.4 °F 93% 29.95 in 6.2 mi SW 4.6 mph - N/A   Partly Cloudy
3:30 AM 39.2 °F 35.9 °F 37.4 °F 93% 29.95 in 6.2 mi WSW 4.6 mph - N/A   Overcast
4:00 AM 39.2 °F 35.9 °F 37.4 °F 93% 29.95 in 6.2 mi WSW 4.6 mph - N/A   Overcast
4:30 AM 39.2 °F 34.2 °F 37.4 °F 93% 29.95 in 6.2 mi SW 6.9 mph - N/A   Overcast
5:00 AM 39.2 °F 35.9 °F 37.4 °F 93% 29.98 in 6.2 mi SW 4.6 mph - N/A   Mostly Cloudy
5:30 AM 37.4 °F 32.1 °F 35.6 °F 93% 29.98 in 6.2 mi SSW 6.9 mph - N/A   Partly Cloudy
6:00 AM 37.4 °F 32.1 °F 35.6 °F 93% 29.98 in 6.2 mi SW 6.9 mph - N/A   Partly Cloudy
6:30 AM 37.4 °F 32.1 °F 37.4 °F 100% 29.98 in 6.2 mi SW 6.9 mph - N/A   Partly Cloudy
7:00 AM 39.2 °F 34.2 °F 37.4 °F 93% 29.98 in - SW 6.9 mph - N/A   Clear
7:30 AM 39.2 °F 35.0 °F 37.4 °F 93% 29.98 in - WSW 5.8 mph - N/A   Clear
8:00 AM 39 °F - 37 °F 89% 30.02 in 6 mi SW 6.7 mph - -   Partly Cloudy
8:00 AM 39.2 °F 34.2 °F 37.4 °F 93% 29.98 in - SW 6.9 mph - N/A   Clear
8:30 AM 39.2 °F 34.2 °F 37.4 °F 93% 29.98 in - WSW 6.9 mph - N/A   Clear
9:00 AM 41.0 °F 35.8 °F 37.4 °F 87% 30.01 in - WSW 8.1 mph - N/A   Clear
9:30 AM 42.8 °F 37.0 °F 39.2 °F 87% 30.01 in - SW 10.4 mph - N/A   Clear
10:00 AM 42.8 °F 37.5 °F 39.2 °F 87% 30.01 in - WSW 9.2 mph - N/A   Clear
10:30 AM 44.6 °F 39.7 °F 39.2 °F 81% 30.01 in - SW 9.2 mph - N/A   Clear
11:00 AM 46.4 °F 42.4 °F 39.2 °F 76% 30.01 in 6.2 mi SW 8.1 mph - N/A   Partly Cloudy
11:30 AM 48.2 °F - 39.2 °F 71% 30.01 in 6.2 mi SW 5.8 mph - N/A   Partly Cloudy
12:00 PM 50.0 °F - 41.0 °F 71% 30.01 in 6.2 mi SW 5.8 mph - N/A   Scattered Clouds
12:30 PM 51.8 °F - 39.2 °F 62% 30.01 in 6.2 mi SSW 4.6 mph - N/A   Partly Cloudy
1:00 PM 50.0 °F - 37.4 °F 62% 29.98 in 6.2 mi West 3.5 mph - N/A   Scattered Clouds
1:30 PM 50.0 °F - 37.4 °F 62% 29.98 in 6.2 mi West 3.5 mph - N/A   Scattered Clouds
2:00 PM 53 °F - 37 °F 43% 29.99 in 16 mi 4.5 mph - -   Scattered Clouds
2:00 PM 53.6 °F - 37.4 °F 54% 29.98 in 6.2 mi Variable 3.5 mph - N/A   Partly Cloudy
2:30 PM 53.6 °F - 35.6 °F 51% 29.98 in 6.2 mi WSW 4.6 mph - N/A   Partly Cloudy
3:00 PM 53.6 °F - 39.2 °F 58% 29.98 in 6.2 mi West 4.6 mph - N/A   Scattered Clouds
3:30 PM 53.6 °F - 37.4 °F 54% 29.95 in 6.2 mi Variable 2.3 mph - N/A   Scattered Clouds
4:00 PM 51.8 °F - 37.4 °F 58% 29.95 in 6.2 mi NNE 4.6 mph - N/A   Scattered Clouds
4:30 PM 51.8 °F - 37.4 °F 58% 29.95 in 6.2 mi NNE 6.9 mph - N/A   Partly Cloudy
5:00 PM 50.0 °F - 37.4 °F 62% 29.95 in 6.2 mi NE 3.5 mph - N/A   Partly Cloudy
5:30 PM 50.0 °F - 37.4 °F 62% 29.95 in 6.2 mi NNE 3.5 mph - N/A   Partly Cloudy
6:00 PM 48.2 °F - 37.4 °F 66% 29.95 in 6.2 mi ENE 2.3 mph - N/A   Partly Cloudy
6:30 PM 46.4 °F - 39.2 °F 76% 29.98 in 6.2 mi Variable 2.3 mph - N/A   Partly Cloudy
7:00 PM 46.4 °F 45.2 °F 39.2 °F 76% 29.98 in 6.2 mi ESE 3.5 mph - N/A   Partly Cloudy
7:30 PM 44.6 °F - 37.4 °F 76% 29.98 in - Variable 2.3 mph - N/A   Clear
8:00 PM 44 °F - 38 °F 72% 29.99 in 9 mi 2.2 mph - -  
8:00 PM 42.8 °F - 37.4 °F 81% 29.98 in - Variable 2.3 mph - N/A   Clear
8:30 PM 41.0 °F - 37.4 °F 87% 29.98 in - North 2.3 mph - N/A   Clear
9:00 PM 41.0 °F - 37.4 °F 87% 29.98 in - Calm Calm - N/A   Clear
9:30 PM 41.0 °F - 37.4 °F 87% 29.98 in - Variable 1.2 mph - N/A   Clear
10:00 PM 39.2 °F - 37.4 °F 93% 29.98 in - Calm Calm - N/A   Clear
10:30 PM 39.2 °F - 35.6 °F 87% 29.98 in 5.0 mi Calm Calm - N/A   Unknown
11:00 PM 37.4 °F - 35.6 °F 93% 29.98 in 4.3 mi Calm Calm - N/A   Unknown
11:30 PM 35.6 °F - 35.6 °F 100% 29.98 in 3.7 mi Calm Calm - N/A   Unknown